Time,TemperatureF,DewpointF,PressureIn,WindDirection,WindDirectionDegrees,WindSpeedMPH,WindSpeedGustMPH,Humidity,HourlyPrecipIn,Conditions,Clouds,dailyrainin,SoftwareType,DateUTC
2013-02-27 00:00:00,41.6,39.5,29.54,SW,232,0.0,10.0,92,0.00,,BKN055,0.67,VWS V14.00,2013-02-27 05:00:00,
2013-02-27 00:10:00,41.5,39.3,29.54,SSW,208,0.0,9.0,92,0.00,,BKN055,0.00,VWS V14.00,2013-02-27 05:10:00,
2013-02-27 00:20:00,41.6,39.5,29.54,WSW,238,0.0,12.0,92,0.00,,BKN055,0.00,VWS V14.00,2013-02-27 05:20:00,
2013-02-27 00:30:00,41.5,39.3,29.55,West,274,0.0,7.0,92,0.00,,BKN055,0.00,VWS V14.00,2013-02-27 05:30:00,
2013-02-27 00:40:00,41.5,39.3,29.55,SW,229,0.0,10.0,92,0.00,,BKN055,0.00,VWS V14.00,2013-02-27 05:40:00,
2013-02-27 00:50:00,41.4,39.2,29.55,WSW,238,0.0,9.0,92,0.00,,BKN055,0.00,VWS V14.00,2013-02-27 05:50:00,
2013-02-27 01:00:00,41.2,39.3,29.55,SW,225,4.0,9.0,93,0.00,,BKN055,0.00,VWS V14.00,2013-02-27 06:00:00,
2013-02-27 01:10:00,41.1,39.2,29.56,SSW,213,0.0,6.0,93,0.00,,BKN055,0.00,VWS V14.00,2013-02-27 06:10:00,
2013-02-27 01:20:00,41.0,39.4,29.56,SW,236,0.0,7.0,94,0.00,,BKN055,0.00,VWS V14.00,2013-02-27 06:20:00,
2013-02-27 01:30:00,40.8,38.9,29.57,SW,223,0.0,9.0,93,0.00,,BKN055,0.00,VWS V14.00,2013-02-27 06:30:00,
2013-02-27 01:40:00,40.8,38.7,29.56,WSW,244,6.0,11.0,92,0.00,,BKN055,0.00,VWS V14.00,2013-02-27 06:40:00,
2013-02-27 01:50:00,40.9,38.5,29.57,WSW,252,3.0,10.0,91,0.00,,BKN055,0.00,VWS V14.00,2013-02-27 06:50:00,
2013-02-27 02:00:00,40.8,38.7,29.58,SW,217,1.0,10.0,92,0.00,,BKN055,0.00,VWS V14.00,2013-02-27 07:00:00,
2013-02-27 02:10:00,40.6,38.2,29.57,SW,225,5.0,9.0,91,0.00,,BKN055,0.00,VWS V14.00,2013-02-27 07:10:00,
2013-02-27 02:20:00,40.6,38.2,29.58,WSW,246,10.0,11.0,91,0.00,,BKN055,0.00,VWS V14.00,2013-02-27 07:20:00,
2013-02-27 02:30:00,40.6,38.2,29.57,South,172,3.0,10.0,91,0.00,,BKN055,0.00,VWS V14.00,2013-02-27 07:30:00,
2013-02-27 02:40:00,40.7,38.3,29.57,South,180,7.0,10.0,91,0.00,,BKN055,0.00,VWS V14.00,2013-02-27 07:40:00,
2013-02-27 02:50:00,40.7,38.3,29.57,WSW,249,4.0,10.0,91,0.00,,BKN055,0.00,VWS V14.00,2013-02-27 07:50:00,
2013-02-27 03:00:00,40.7,38.3,29.57,SW,233,4.0,9.0,91,0.00,,BKN055,0.00,VWS V14.00,2013-02-27 08:00:00,
2013-02-27 03:10:00,40.7,38.3,29.58,WSW,241,2.0,10.0,91,0.00,,BKN055,0.00,VWS V14.00,2013-02-27 08:10:00,
2013-02-27 03:20:00,40.7,38.3,29.58,SW,236,3.0,11.0,91,0.00,,BKN055,0.00,VWS V14.00,2013-02-27 08:20:00,
2013-02-27 03:30:00,40.7,38.3,29.58,SW,233,9.0,10.0,91,0.00,,BKN055,0.00,VWS V14.00,2013-02-27 08:30:00,
2013-02-27 03:40:00,40.5,38.4,29.58,WSW,244,4.0,9.0,92,0.00,,BKN055,0.00,VWS V14.00,2013-02-27 08:40:00,
2013-02-27 03:50:00,40.4,38.3,29.58,SW,221,0.0,11.0,92,0.00,,BKN055,0.00,VWS V14.00,2013-02-27 08:50:00,
2013-02-27 04:00:00,40.1,38.2,29.58,South,178,2.0,11.0,93,0.00,,BKN055,0.00,VWS V14.00,2013-02-27 09:00:00,
2013-02-27 04:10:00,40.0,38.4,29.58,WSW,241,0.0,10.0,94,0.00,,BKN055,0.00,VWS V14.00,2013-02-27 09:10:00,
2013-02-27 04:20:00,39.9,38.3,29.58,WSW,240,1.0,6.0,94,0.00,,BKN055,0.00,VWS V14.00,2013-02-27 09:20:00,
2013-02-27 04:30:00,40.0,38.4,29.58,SSW,207,2.0,7.0,94,0.00,,BKN055,0.00,VWS V14.00,2013-02-27 09:30:00,
2013-02-27 04:40:00,40.0,38.4,29.58,SW,223,2.0,6.0,94,0.00,,BKN055,0.00,VWS V14.00,2013-02-27 09:40:00,
2013-02-27 04:50:00,40.1,38.2,29.59,West,273,3.0,11.0,93,0.00,,BKN055,0.00,VWS V14.00,2013-02-27 09:50:00,
2013-02-27 05:00:00,40.2,38.3,29.60,WSW,252,0.0,14.0,93,0.00,,BKN055,0.00,VWS V14.00,2013-02-27 10:00:00,
2013-02-27 05:10:00,40.3,38.4,29.60,SSW,199,1.0,17.0,93,0.00,,BKN055,0.00,VWS V14.00,2013-02-27 10:10:00,
2013-02-27 05:20:00,40.2,38.1,29.60,West,259,9.0,15.0,92,0.00,,BKN055,0.00,VWS V14.00,2013-02-27 10:20:00,
2013-02-27 05:30:00,40.1,38.2,29.60,WSW,244,2.0,14.0,93,0.00,,BKN055,0.00,VWS V14.00,2013-02-27 10:30:00,
2013-02-27 05:40:00,40.1,38.0,29.61,West,263,9.0,15.0,92,0.00,,BKN055,0.00,VWS V14.00,2013-02-27 10:40:00,
2013-02-27 05:50:00,40.2,37.8,29.61,WSW,251,7.0,13.0,91,0.00,,BKN055,0.00,VWS V14.00,2013-02-27 10:50:00,
2013-02-27 06:00:00,40.4,37.7,29.61,SW,235,9.0,13.0,90,0.00,,BKN055,0.00,VWS V14.00,2013-02-27 11:00:00,
2013-02-27 06:10:00,40.4,37.7,29.62,SW,215,2.0,13.0,90,0.00,,BKN055,0.00,VWS V14.00,2013-02-27 11:10:00,
2013-02-27 06:20:00,40.3,37.6,29.62,WSW,244,2.0,14.0,90,0.00,,BKN055,0.00,VWS V14.00,2013-02-27 11:20:00,
2013-02-27 06:30:00,40.1,37.4,29.62,WSW,251,2.0,11.0,90,0.00,,BKN055,0.00,VWS V14.00,2013-02-27 11:30:00,
2013-02-27 06:40:00,40.0,37.6,29.62,WSW,244,3.0,8.0,91,0.00,,BKN055,0.00,VWS V14.00,2013-02-27 11:40:00,
2013-02-27 06:50:00,40.0,37.9,29.63,SW,234,0.0,6.0,92,0.00,,BKN055,0.00,VWS V14.00,2013-02-27 11:50:00,
2013-02-27 07:00:00,39.9,37.8,29.63,SSW,201,3.0,7.0,92,0.00,,BKN055,0.00,VWS V14.00,2013-02-27 12:00:00,
2013-02-27 07:10:00,39.8,37.7,29.63,WSW,245,0.0,11.0,92,0.00,,BKN055,0.00,VWS V14.00,2013-02-27 12:10:00,
2013-02-27 07:20:00,39.8,37.4,29.64,SW,232,6.0,13.0,91,0.00,,BKN055,0.00,VWS V14.00,2013-02-27 12:20:00,
2013-02-27 07:30:00,39.8,37.1,29.64,SW,222,5.0,16.0,90,0.00,,BKN055,0.00,VWS V14.00,2013-02-27 12:30:00,
2013-02-27 07:40:00,39.7,37.0,29.65,SW,225,3.0,16.0,90,0.00,,BKN055,0.00,VWS V14.00,2013-02-27 12:40:00,
2013-02-27 07:50:00,39.3,37.2,29.66,SW,217,2.0,12.0,92,0.00,,BKN055,0.00,VWS V14.00,2013-02-27 12:50:00,
2013-02-27 08:00:00,38.9,37.0,29.66,South,183,4.0,11.0,93,0.01,,BKN055,0.01,VWS V14.00,2013-02-27 13:00:00,
2013-02-27 08:10:00,38.7,37.1,29.67,South,178,10.0,10.0,94,0.01,,BKN055,0.01,VWS V14.00,2013-02-27 13:10:00,
2013-02-27 08:20:00,38.3,36.7,29.67,WSW,239,10.0,11.0,94,0.02,,BKN055,0.02,VWS V14.00,2013-02-27 13:20:00,
2013-02-27 08:30:00,37.9,36.3,29.67,SSW,194,2.0,13.0,94,0.02,,BKN055,0.02,VWS V14.00,2013-02-27 13:30:00,
2013-02-27 08:40:00,38.0,36.4,29.68,SW,222,9.0,11.0,94,0.02,,BKN055,0.02,VWS V14.00,2013-02-27 13:40:00,
2013-02-27 08:50:00,38.0,35.9,29.68,WSW,244,1.0,18.0,92,0.02,,BKN055,0.02,VWS V14.00,2013-02-27 13:50:00,
2013-02-27 09:00:00,38.0,35.6,29.68,SW,233,8.0,17.0,91,0.02,,BKN055,0.02,VWS V14.00,2013-02-27 14:00:00,
2013-02-27 09:10:00,37.9,35.5,29.68,WSW,248,3.0,11.0,91,0.01,,BKN055,0.02,VWS V14.00,2013-02-27 14:10:00,
2013-02-27 09:20:00,37.7,35.3,29.69,South,184,2.0,13.0,91,0.01,,BKN055,0.02,VWS V14.00,2013-02-27 14:20:00,
2013-02-27 09:30:00,37.5,35.7,29.70,WSW,243,4.0,10.0,93,0.00,,BKN055,0.02,VWS V14.00,2013-02-27 14:30:00,
2013-02-27 09:40:00,37.3,35.5,29.70,SW,225,3.0,10.0,93,0.00,,BKN055,0.02,VWS V14.00,2013-02-27 14:40:00,
2013-02-27 09:50:00,37.5,35.9,29.70,SW,225,0.0,10.0,94,0.00,,BKN055,0.02,VWS V14.00,2013-02-27 14:50:00,
2013-02-27 10:00:00,37.6,36.0,29.70,SSW,210,3.0,11.0,94,0.00,,BKN055,0.02,VWS V14.00,2013-02-27 15:00:00,
2013-02-27 10:10:00,37.7,35.9,29.70,SSW,202,2.0,9.0,93,0.01,,BKN055,0.03,VWS V14.00,2013-02-27 15:10:00,
2013-02-27 10:20:00,37.8,35.7,29.70,SW,236,4.0,9.0,92,0.01,,BKN055,0.03,VWS V14.00,2013-02-27 15:20:00,
2013-02-27 10:30:00,37.8,35.7,29.70,WSW,257,0.0,11.0,92,0.01,,BKN055,0.03,VWS V14.00,2013-02-27 15:30:00,
2013-02-27 10:40:00,38.0,35.6,29.70,SW,234,4.0,12.0,91,0.01,,BKN055,0.03,VWS V14.00,2013-02-27 15:40:00,
2013-02-27 10:50:00,38.1,35.2,29.70,SSW,209,4.0,14.0,89,0.01,,BKN055,0.03,VWS V14.00,2013-02-27 15:50:00,
2013-02-27 11:00:00,38.3,35.1,29.70,WSW,240,7.0,17.0,88,0.01,,BKN055,0.03,VWS V14.00,2013-02-27 16:00:00,
2013-02-27 11:10:00,38.4,35.2,29.69,SSW,212,5.0,16.0,88,0.01,,BKN055,0.03,VWS V14.00,2013-02-27 16:10:00,
2013-02-27 11:20:00,38.6,35.1,29.69,West,277,4.0,12.0,87,0.00,,BKN055,0.03,VWS V14.00,2013-02-27 16:20:00,
2013-02-27 11:30:00,38.8,35.0,29.69,SW,226,5.0,15.0,86,0.00,,BKN055,0.03,VWS V14.00,2013-02-27 16:30:00,
2013-02-27 11:40:00,39.0,35.2,29.69,WSW,245,11.0,18.0,86,0.00,,BKN055,0.03,VWS V14.00,2013-02-27 16:40:00,
2013-02-27 11:50:00,39.3,35.2,29.69,SSE,165,6.0,19.0,85,0.00,,BKN055,0.03,VWS V14.00,2013-02-27 16:50:00,
2013-02-27 12:00:00,39.4,35.6,29.69,SW,221,0.0,17.0,86,0.00,,BKN055,0.03,VWS V14.00,2013-02-27 17:00:00,
2013-02-27 12:10:00,39.6,35.2,29.69,West,260,6.0,14.0,84,0.00,,BKN055,0.03,VWS V14.00,2013-02-27 17:10:00,
2013-02-27 12:20:00,39.9,34.9,29.69,WSW,240,3.0,16.0,82,0.00,,BKN055,0.03,VWS V14.00,2013-02-27 17:20:00,
2013-02-27 12:30:00,39.1,34.1,29.70,WSW,249,8.0,16.0,82,0.00,,BKN055,0.03,VWS V14.00,2013-02-27 17:30:00,
2013-02-27 12:40:00,38.6,34.2,29.70,WSW,254,4.0,14.0,84,0.00,,BKN055,0.03,VWS V14.00,2013-02-27 17:40:00,
2013-02-27 12:50:00,38.3,33.6,29.70,WSW,252,14.0,22.0,83,0.00,,BKN055,0.03,VWS V14.00,2013-02-27 17:50:00,
2013-02-27 13:00:00,38.4,34.0,29.69,SSW,205,9.0,15.0,84,0.00,,BKN055,0.03,VWS V14.00,2013-02-27 18:00:00,
2013-02-27 13:10:00,38.5,33.5,29.69,West,281,19.0,19.0,82,0.00,,BKN055,0.03,VWS V14.00,2013-02-27 18:10:00,
2013-02-27 13:20:00,38.3,33.6,29.69,SW,228,10.0,19.0,83,0.00,,BKN055,0.03,VWS V14.00,2013-02-27 18:20:00,
2013-02-27 13:30:00,38.3,33.9,29.68,SW,231,10.0,14.0,84,0.00,,BKN055,0.03,VWS V14.00,2013-02-27 18:30:00,
2013-02-27 13:40:00,39.0,34.0,29.68,SW,223,4.0,14.0,82,0.00,,BKN055,0.03,VWS V14.00,2013-02-27 18:40:00,
2013-02-27 13:50:00,39.0,33.7,29.67,WSW,242,9.0,14.0,81,0.00,,BKN055,0.03,VWS V14.00,2013-02-27 18:50:00,
2013-02-27 14:00:00,39.2,34.2,29.68,WSW,258,4.0,16.0,82,0.00,,BKN055,0.03,VWS V14.00,2013-02-27 19:00:00,
2013-02-27 14:10:00,39.4,34.1,29.68,SW,233,6.0,15.0,81,0.00,,BKN055,0.03,VWS V14.00,2013-02-27 19:10:00,
2013-02-27 14:20:00,39.5,34.2,29.68,WSW,249,4.0,10.0,81,0.00,,BKN055,0.03,VWS V14.00,2013-02-27 19:20:00,
2013-02-27 14:30:00,39.8,33.8,29.67,West,259,17.0,17.0,79,0.00,,BKN055,0.03,VWS V14.00,2013-02-27 19:30:00,
2013-02-27 14:41:00,39.5,33.2,29.68,SW,235,3.0,3.0,78,0.00,,BKN055,0.03,VWS V14.00,2013-02-27 19:41:00,
2013-02-27 14:50:00,39.5,33.2,29.69,WSW,253,8.0,16.0,78,0.00,,BKN055,0.03,VWS V14.00,2013-02-27 19:50:00,
2013-02-27 15:00:00,39.6,33.0,29.69,West,269,10.0,19.0,77,0.00,,BKN055,0.03,VWS V14.00,2013-02-27 20:00:00,
2013-02-27 15:10:00,39.6,33.3,29.69,SW,227,6.0,16.0,78,0.00,,BKN055,0.03,VWS V14.00,2013-02-27 20:10:00,
2013-02-27 15:20:00,39.7,32.8,29.69,WSW,240,6.0,20.0,76,0.00,,BKN055,0.03,VWS V14.00,2013-02-27 20:20:00,
2013-02-27 15:30:00,39.6,32.0,29.70,WSW,248,10.0,19.0,74,0.00,,BKN055,0.03,VWS V14.00,2013-02-27 20:30:00,
2013-02-27 15:40:00,39.3,32.4,29.70,WSW,245,4.0,19.0,76,0.00,,BKN055,0.03,VWS V14.00,2013-02-27 20:40:00,
2013-02-27 15:50:00,39.1,32.5,29.71,WSW,237,6.0,16.0,77,0.00,,BKN055,0.03,VWS V14.00,2013-02-27 20:50:00,
2013-02-27 16:00:00,38.7,31.8,29.71,WSW,255,13.0,19.0,76,0.00,,BKN055,0.03,VWS V14.00,2013-02-27 21:00:00,
2013-02-27 16:10:00,38.5,31.9,29.71,SSW,198,10.0,19.0,77,0.00,,BKN055,0.03,VWS V14.00,2013-02-27 21:10:00,
2013-02-27 16:20:00,38.1,32.2,29.72,SW,220,7.0,18.0,79,0.00,,BKN055,0.03,VWS V14.00,2013-02-27 21:20:00,
2013-02-27 16:30:00,37.9,32.6,29.71,WSW,242,3.0,17.0,81,0.00,,BKN055,0.03,VWS V14.00,2013-02-27 21:30:00,
2013-02-27 16:40:00,38.0,32.7,29.72,SW,224,4.0,9.0,81,0.00,,BKN055,0.03,VWS V14.00,2013-02-27 21:40:00,
2013-02-27 16:50:00,38.0,32.4,29.72,WSW,254,2.0,15.0,80,0.00,,BKN055,0.03,VWS V14.00,2013-02-27 21:50:00,
2013-02-27 17:00:00,38.3,32.7,29.71,SW,235,3.0,7.0,80,0.00,,BKN055,0.03,VWS V14.00,2013-02-27 22:00:00,
2013-02-27 17:10:00,38.5,32.2,29.71,WSW,244,2.0,10.0,78,0.00,,BKN055,0.03,VWS V14.00,2013-02-27 22:10:00,
2013-02-27 17:20:00,38.7,32.4,29.72,WSW,250,7.0,13.0,78,0.00,,BKN055,0.03,VWS V14.00,2013-02-27 22:20:00,
2013-02-27 17:30:00,38.7,32.1,29.72,WSW,242,9.0,13.0,77,0.00,,BKN055,0.03,VWS V14.00,2013-02-27 22:30:00,
2013-02-27 17:40:00,38.5,31.9,29.72,WSW,252,6.0,16.0,77,0.00,,BKN055,0.03,VWS V14.00,2013-02-27 22:40:00,
2013-02-27 17:50:00,38.4,32.2,29.73,WSW,252,4.0,16.0,78,0.00,,BKN055,0.03,VWS V14.00,2013-02-27 22:50:00,
2013-02-27 18:00:00,38.3,32.0,29.73,SW,231,6.0,16.0,78,0.00,,BKN055,0.03,VWS V14.00,2013-02-27 23:00:00,
2013-02-27 18:10:00,38.3,32.0,29.73,WSW,252,0.0,13.0,78,0.00,,BKN055,0.03,VWS V14.00,2013-02-27 23:10:00,
2013-02-27 18:20:00,38.2,32.3,29.73,WSW,256,8.0,13.0,79,0.00,,BKN055,0.03,VWS V14.00,2013-02-27 23:20:00,
2013-02-27 18:30:00,38.2,32.3,29.73,SW,232,6.0,14.0,79,0.00,,BKN055,0.03,VWS V14.00,2013-02-27 23:30:00,
2013-02-27 18:40:00,38.0,33.0,29.74,SW,227,3.0,11.0,82,0.00,,BKN055,0.03,VWS V14.00,2013-02-27 23:40:00,
2013-02-27 18:50:00,37.2,32.8,29.74,SW,229,4.0,14.0,84,0.00,,BKN055,0.03,VWS V14.00,2013-02-27 23:50:00,
2013-02-27 19:00:00,36.5,33.0,29.75,WSW,251,3.0,11.0,87,0.00,,BKN055,0.03,VWS V14.00,2013-02-28 00:00:00,
2013-02-27 19:10:00,36.0,33.1,29.75,SW,226,5.0,13.0,89,0.00,,BKN055,0.03,VWS V14.00,2013-02-28 00:10:00,
2013-02-27 19:20:00,35.9,33.0,29.76,SW,223,4.0,12.0,89,0.00,,BKN055,0.03,VWS V14.00,2013-02-28 00:20:00,
2013-02-27 19:30:00,35.9,33.3,29.75,SSW,192,5.0,11.0,90,0.00,,BKN055,0.03,VWS V14.00,2013-02-28 00:30:00,
2013-02-27 19:40:00,36.0,33.4,29.75,WSW,248,3.0,11.0,90,0.00,,BKN055,0.03,VWS V14.00,2013-02-28 00:40:00,
2013-02-27 19:50:00,36.1,33.5,29.75,West,271,0.0,14.0,90,0.00,,BKN055,0.03,VWS V14.00,2013-02-28 00:50:00,
2013-02-27 20:00:00,36.1,33.7,29.75,WSW,238,6.0,11.0,91,0.00,,BKN055,0.03,VWS V14.00,2013-02-28 01:00:00,
2013-02-27 20:10:00,36.1,33.7,29.76,SW,236,4.0,11.0,91,0.00,,BKN055,0.03,VWS V14.00,2013-02-28 01:10:00,
2013-02-27 20:20:00,35.9,33.5,29.75,WSW,248,3.0,11.0,91,0.00,,BKN055,0.03,VWS V14.00,2013-02-28 01:20:00,
2013-02-27 20:30:00,35.7,33.6,29.75,South,188,6.0,11.0,92,0.00,,BKN055,0.03,VWS V14.00,2013-02-28 01:30:00,
2013-02-27 20:40:00,35.7,33.6,29.75,SW,217,2.0,11.0,92,0.00,,BKN055,0.03,VWS V14.00,2013-02-28 01:40:00,
2013-02-27 20:50:00,35.7,33.6,29.75,South,184,5.0,9.0,92,0.00,,BKN055,0.03,VWS V14.00,2013-02-28 01:50:00,
2013-02-27 21:00:00,35.7,33.3,29.75,West,281,2.0,10.0,91,0.00,,BKN055,0.03,VWS V14.00,2013-02-28 02:00:00,
2013-02-27 21:10:00,35.7,33.1,29.75,WSW,238,3.0,15.0,90,0.00,,BKN055,0.03,VWS V14.00,2013-02-28 02:10:00,
2013-02-27 21:20:00,35.6,33.0,29.75,WSW,252,6.0,12.0,90,0.00,,BKN055,0.03,VWS V14.00,2013-02-28 02:20:00,
2013-02-27 21:30:00,35.4,33.0,29.76,SW,224,4.0,11.0,91,0.00,,BKN055,0.03,VWS V14.00,2013-02-28 02:30:00,
2013-02-27 21:40:00,35.3,32.9,29.76,SW,234,3.0,13.0,91,0.00,,BKN055,0.03,VWS V14.00,2013-02-28 02:40:00,
2013-02-27 21:50:00,35.1,32.7,29.76,NW,304,2.0,9.0,91,0.00,,BKN055,0.03,VWS V14.00,2013-02-28 02:50:00,
2013-02-27 22:00:00,35.0,32.4,29.76,SW,235,1.0,12.0,90,0.00,,BKN055,0.03,VWS V14.00,2013-02-28 03:00:00,
2013-02-27 22:10:00,35.0,32.4,29.76,West,275,2.0,10.0,90,0.00,,BKN055,0.03,VWS V14.00,2013-02-28 03:10:00,
2013-02-27 22:20:00,35.0,32.1,29.76,SW,233,2.0,11.0,89,0.00,,BKN055,0.03,VWS V14.00,2013-02-28 03:20:00,
2013-02-27 22:40:00,35.0,31.8,29.76,WSW,239,5.0,12.0,88,0.00,,BKN055,0.03,VWS V14.00,2013-02-28 03:40:00,
2013-02-27 22:50:00,35.0,31.8,29.76,WSW,245,9.0,11.0,88,0.00,,BKN055,0.03,VWS V14.00,2013-02-28 03:50:00,
2013-02-27 23:00:00,34.9,31.7,29.75,WSW,252,6.0,12.0,88,0.00,,BKN055,0.03,VWS V14.00,2013-02-28 04:00:00,
2013-02-27 23:10:00,34.8,31.6,29.76,WSW,239,5.0,13.0,88,0.00,,BKN055,0.03,VWS V14.00,2013-02-28 04:10:00,
2013-02-27 23:20:00,34.9,31.4,29.75,SW,236,3.0,15.0,87,0.00,,BKN055,0.03,VWS V14.00,2013-02-28 04:20:00,
2013-02-27 23:30:00,34.9,31.4,29.75,SW,229,1.0,10.0,87,0.00,,BKN055,0.03,VWS V14.00,2013-02-28 04:30:00,
2013-02-27 23:40:00,34.9,31.4,29.75,SSW,200,5.0,10.0,87,0.00,,BKN055,0.03,VWS V14.00,2013-02-28 04:40:00,
2013-02-27 23:50:00,34.9,31.1,29.75,WSW,239,5.0,10.0,86,0.00,,BKN055,0.03,VWS V14.00,2013-02-28 04:50:00,